Regional Weather Roundup
Issued by NWS

Home | Current Version | Previous Version | Text Only | Print | Product List | Glossary Off
Versions: 1 2 3 4 5 6 7 8 9 10 11 12 13 14 15 16 17 18 19 20 21 22 23 24 25 26 27 28 29 30 31 32 33 34 35 36 37 38 39 40 41 42 43 44 45 46 47 48 49 50

000
ASUS45 KSLC 271110
RWRUT

UTAH REGIONAL WEATHER ROUNDUP
NATIONAL WEATHER SERVICE SALT LAKE CITY UT
500 AM MDT SAT MAY 27 2017

UTZ001>011-023>025-271200-

NORTHERN UTAH

CITY           SKY/WX    TMP DP  RH WIND       PRES   REMARKS
BRIGHAM CITY   CLEAR     45  37  74 W5        30.15R
HILL AFB       CLEAR     44  34  69 E7        30.14R
LOGAN          CLEAR     42  36  79 CALM      30.16R
OGDEN          CLEAR     43  35  73 S8        30.13R
SALT LAKE CITY PTCLDY    49  40  71 CALM      30.13R
TOOELE VALLEY  MOCLDY    45  39  81 S5        30.15S
WENDOVER       CLEAR     49  37  63 CALM      30.15R
HEBER CITY     CLEAR     34  30  86 SE5       30.12R WCI  30
WEST JORDAN    CLOUDY    46  43  87 N5        30.14R

$$

UTZ011>015-024>027-271200-

CENTRAL/NORTHEAST UTAH

CITY           SKY/WX    TMP DP  RH WIND       PRES   REMARKS
PROVO AIRPORT  CLEAR     50  39  66 NW14      30.13R
MOAB/CANYONLAN PTCLDY    57  24  28 W9        29.99R
DELTA          CLEAR     43  34  70 NE6       30.13R
PRICE          MOCLDY    50  30  46 N12       30.08R
ROOSEVELT      PTCLDY    50  37  62 NW3       30.08R
VERNAL         MOCLDY    50  39  66 E3        30.05R

$$

UTZ013>016-019>022-027-271200-

SOUTHERN UTAH

CITY           SKY/WX    TMP DP  RH WIND       PRES   REMARKS
BRYCE CANYON   CLEAR     39  30  70 N8        30.18R WCI  33
CEDAR CITY     CLEAR     42  32  67 N6        30.11S
MILFORD        PTCLDY    46  34  62 N5        30.11R
ST GEORGE      SUNNY     68  34  28 NE15G21   29.96R
HANKSVILLE     CLEAR     54  30  40 W5        30.07R
BLANDING       CLEAR     54  28  35 N6G12     30.11R

$$

REGIONAL REPORTS     COLORADO/ARIZONA

CITY           SKY/WX    TMP DP  RH WIND       PRES   REMARKS
CRAIG, CO      LGT RAIN  43  38  82 E6        30.11R
GRAND JUNCTION CLOUDY    56  35  45 N6        30.04R
RIFLE, CO      MOCLDY    51  37  58 S3        30.06R
MONTROSE, CO   MOCLDY    53  34  48 E5        30.07R
CORTEZ, CO     CLEAR     48  28  46 NE7       30.05R
COLORADO CITY    N/A     45  28  53 SE5       30.07R
PAGE, AZ       CLEAR     64  31  28 VRB3      29.99R
GRAND CANYON   CLEAR     33  24  69 CALM      30.13S
KINGMAN, AZ    CLEAR     52  24  33 E10       29.96R
FLAGSTAFF, AZ  CLEAR     42  23  46 W6        30.15S

$$

REGIONAL REPORTS    NEVADA/IDAHO/WYOMING

CITY           SKY/WX    TMP DP  RH WIND       PRES   REMARKS
LAS VEGAS, NV  CLEAR     73  23  15 SW5       29.87R
ELY, NY        PTCLDY    34  23  64 S3        30.18R
ELKO, NV       CLEAR     39  32  76 E3        30.17R
POCATELLO, ID  CLEAR     36  36 100 S3        30.17R
BURLEY, ID     CLEAR     39  36  89 SW6       30.15R WCI  35
FORT BRIDGER,    N/A     36  34  93 W7        30.18R WCI  30
EVANSTON, WY   CLOUDY    35  33  92 N7        30.16R WCI  29
ROCK SPRINGS,  CLOUDY    36  34  92 S5        30.13R WCI  32
KEMMERER, WY     N/A     32  32 100 NW5       30.16R WCI  27

$$



USA.gov is the U.S. government's official web portal to all federal, state and local government web resources and services.